Location: Elgersweier
(48.4413°N, 7.9487°E)
Time: 12:26:29
(UTC+00:00)

Daily predictions for brighter satellites

Satellite Brightness Start Highest point End
(mag) Time Altitude Azimuth Time Altitude Azimuth Time Altitude Azimuth
Cosmos 2315 Rocket 4.2 20:02:20 10° S 20:08:40 82° W 20:14:58 10° N
SPOT 3 Rocket 3.7 20:06:45 10° SSE 20:11:52 63° ENE 20:17:03 10° N
Cosmos 2074 Rocket 4.3 20:06:19 10° N 20:12:31 57° ENE 20:18:38 10° SSE
Ariane Rocket 3.1 20:08:20 10° SSE 20:13:27 86° WSW 20:18:35 10° NNW
Cosmos 1544 Rocket 3.9 20:15:01 10° NNW 20:19:20 68° W 20:23:38 10° S
Lacrosse 5 rocket 3.9 20:19:51 10° WSW 20:20:53 11° WSW 20:21:57 10° SW
Cosmos 1656 3.8 20:16:33 10° NNW 20:22:01 74° WSW 20:27:32 10° SSE
GEOS 3 Rocket 4.4 20:18:26 10° SSE 20:23:18 44° WSW 20:28:12 10° NW
ATLAS 2AS CENTAUR R/B 3.6 20:21:55 10° NW 20:28:27 42° WSW 20:34:36 10° S
USA 234 4.4 20:23:13 10° ENE 20:29:21 44° N 20:35:29 10° WNW
MetOp-B 4.4 20:25:25 10° S 20:30:46 73° WSW 20:36:09 10° NNW
Cosmos 1850 Rocket 4.0 20:25:41 10° NNW 20:30:55 87° WSW 20:36:05 10° SSE
SL-16 R/B 4.3 20:29:05 10° N 20:32:45 17° NE 20:36:23 10° ENE
Cosmos 1980 Rocket 3.0 20:28:19 10° NNW 20:33:43 41° NE 20:39:04 10° ESE
Cosmos 1697 Rocket 2.8 20:28:31 10° NNW 20:34:09 72° ENE 20:39:32 11° SE
USA 32 4.4 20:30:16 10° SSW 20:35:27 68° W 20:40:41 10° N
Cosmos 2344 4.4 20:27:37 10° NW 20:36:15 72° NE 20:48:13 10° SE
SL-8 R/B 4.0 20:32:15 10° W 20:36:56 53° SSW 20:41:22 11° SE
Cosmos 2369 4.3 20:31:41 10° NNW 20:37:15 48° NE 20:42:35 11° SE
Cosmos 1331 Rocket 4.2 20:33:11 10° S 20:38:19 53° ESE 20:43:29 10° NNE
COSMOS 2406 3.7 20:38:20 10° S 20:43:39 40° ESE 20:48:58 10° NE
Spot 2 Rocket 3.5 20:38:51 10° SSE 20:43:56 78° ENE 20:49:04 10° NNW
Cosmos 2154 Rocket 4.1 20:37:56 10° N 20:44:10 68° E 20:50:11 11° SSE
X-37B 1.2 20:42:41 10° WSW 20:45:15 31° SSW 20:47:01 16° SE
CZ-2C R/B 4.1 20:43:23 10° NNE 20:47:45 44° E 20:51:58 10° S
SPOT 5 2.6 20:49:45 11° SSE 20:53:56 87° WSW 20:58:17 10° NNW
Cosmos 1703 3.4 20:52:34 10° SSW 20:56:25 75° WNW 21:00:17 10° N
Cosmos 2084 Rocket 3.2 20:52:58 10° NW 20:56:52 82° NE 21:00:03 16° SE
RESURS DK-1 3.2 20:53:46 10° NW 20:57:41 42° WSW 21:01:19 12° S
Cosmos 1452 Rocket 4.0 20:54:15 10° SSW 20:59:28 65° WNW 21:04:43 10° NNE
Cosmos 1833 Rocket 2.7 20:54:04 10° SSW 20:59:40 84° ESE 21:05:20 10° NNE
Terra 1.8 20:56:28 14° SSE 21:00:36 76° ENE 21:05:23 10° N
CZ-4B R/B 3.6 20:59:13 10° NNW 21:01:31 21° WNW 21:03:48 10° WSW
ASTEX 1 4.4 20:58:42 10° NNE 21:03:08 30° E 21:06:20 16° SE
Cosmos 967 Rocket 4.5 20:58:10 10° SSW 21:04:36 74° ESE 21:11:04 10° NE
Helios 1A Rocket 3.1 21:01:06 13° S 21:04:44 72° WSW 21:08:51 10° NNW
Cosmos 1110 Rocket 4.1 21:00:08 10° SSW 21:05:25 87° WNW 21:10:46 10° NNE
FALCON 9 DEB 3.9 21:03:06 10° WNW 21:06:17 47° NNE 21:09:28 10° E
ERS-1 Rocket 3.1 21:02:33 12° S 21:07:11 78° WSW 21:12:15 10° NNW
Cosmos 1892 Rocket 4.0 21:04:14 16° SSE 21:07:28 43° E 21:11:37 10° NNE
Resurs 01 Rocket 4.0 21:04:56 10° SW 21:08:03 18° W 21:11:11 10° NW
Cosmos 2322 Rocket 4.1 21:04:22 10° N 21:08:36 21° NE 21:12:49 10° E
Cosmos 1302 Rocket 4.3 21:03:51 10° S 21:08:45 47° ESE 21:13:44 10° NNE
Cosmos 2228 3.5 21:07:13 10° NNW 21:11:23 57° W 21:15:15 12° S
Cosmos 2058 Rocket 3.7 21:08:08 10° N 21:12:23 44° ENE 21:15:19 19° SE
Cosmos 1825 3.9 21:15:03 16° ESE 21:16:24 19° E 21:19:03 10° NE
Cosmos 1408 3.1 21:16:14 22° SSE 21:17:56 37° E 21:21:09 10° NNE
Lacrosse 5 4.2 21:16:21 10° W 21:18:00 12° WSW 21:19:40 10° SW
Meteor 1-11 4.5 21:15:39 16° SSE 21:20:00 51° E 21:25:23 10° NNE
Cosmos 2278 4.2 21:14:24 10° NNW 21:20:02 53° ENE 21:24:23 17° SE
Cosmos 968 Rocket 3.5 21:17:38 10° NNW 21:22:53 83° ENE 21:26:36 20° SSE
Cosmos 1328 3.8 21:22:05 13° SSW 21:25:40 82° W 21:29:41 10° N
USA 276 2.3 21:25:12 10° WNW 21:28:14 65° N 21:31:02 12° E
SJ 16-02 3.4 21:28:52 10° N 21:32:01 18° NE 21:35:08 10° E
Cosmos 1867 3.6 21:27:16 10° NW 21:32:47 88° SW 21:36:30 21° SE
Cosmos 2082 Rocket 2.2 21:27:49 10° SSW 21:33:29 67° ESE 21:39:09 10° NNE
USA 267 3.7 21:30:31 10° ENE 21:36:35 39° SE 21:42:39 10° SSW
ARIANE 5 R/B 2.9 21:35:43 19° S 21:38:50 62° WSW 21:43:14 10° NNW
Cosmos 1606 Rocket 4.4 21:35:57 10° NNW 21:40:05 45° W 21:43:24 15° SSW
GP-B 3.2 21:36:37 10° N 21:41:03 63° E 21:43:34 25° SSE
Cosmos 2341 Rocket 4.0 21:36:09 10° N 21:42:31 86° E 21:47:01 20° S
Cosmos 2360 Rocket 4.0 21:40:09 10° N 21:44:42 24° NE 21:49:14 10° E
SAR-Lupe-4 3.7 21:41:43 10° NNE 21:45:14 55° E 21:46:46 30° SSE
Okean 1-7 Rocket 3.7 21:58:40 28° SSE 22:00:54 63° E 22:05:21 10° NNE
SAR-Lupe-1 4.0 21:58:13 10° NNE 22:01:49 83° WNW 22:03:39 27° SSW
Cosmos 1892 2.8 22:02:06 25° SSW 22:04:11 69° W 22:07:59 10° N
Cosmos 1758 Rocket 4.5 22:08:36 27° SE 22:10:05 34° E 22:14:04 10° NNE
Cosmos 2181 Rocket 3.9 22:07:21 21° S 22:11:41 88° E 22:17:58 10° N
USA 234 3.5 22:05:21 10° ESE 22:11:53 71° NNE 22:18:25 10° NW
Cosmos 1633 3.1 22:12:09 34° ESE 22:12:49 38° E 22:16:04 10° NNE
Cosmos 1980 Rocket 3.1 22:12:28 10° NW 22:17:42 38° WSW 22:20:52 21° SSW
Cosmos 1821 Rocket 4.3 22:11:41 10° N 22:17:51 58° ENE 22:21:23 25° SSE
SL-16 R/B 2.4 22:12:18 10° NNW 22:17:59 67° ENE 22:21:23 25° SE
Cosmos 1486 Rocket 4.0 22:13:11 10° NNW 22:18:25 76° WSW 22:21:05 29° S
Cosmos 1992 Rocket 3.9 22:15:18 22° SSW 22:18:47 84° ESE 22:24:04 10° NNE
Cosmos 1812 Rocket 3.7 22:15:49 10° N 22:20:16 63° ENE 22:22:08 33° SSE
Cosmos 1932 4.4 22:14:33 10° SW 22:20:47 89° SE 22:27:11 10° NE
SL-4 R/B 4.1 22:23:23 11° E 22:23:23 11° E 22:23:41 10° E
Cosmos 2219 Rocket 4.2 22:17:25 10° N 22:21:45 22° NE 22:26:05 10° E
COSMOS 2406 4.5 22:22:32 10° WSW 22:27:57 41° NW 22:33:23 10° NNE
Cosmos-2242 3.1 22:25:24 10° N 22:29:37 61° ENE 22:31:12 35° SE
ATLAS 5 CENTAUR R/B 1.2 22:29:23 23° SW 22:31:37 87° NW 22:35:51 10° NE
Cosmos 1869 3.8 22:29:55 10° NNW 22:33:43 50° W 22:35:09 32° SSW
Cosmos 1602 Rocket 3.4 22:32:12 36° S 22:33:53 79° E 22:38:13 10° NNE
Cosmos 807 4.0 22:30:59 10° NNW 22:34:03 71° W 22:34:24 61° SSW
ERS-2 3.7 22:34:35 10° NE 22:37:24 21° E 22:37:40 21° ESE
Terra 4.2 22:36:16 10° WSW 22:38:55 15° W 22:41:35 10° NW
Nadezhda 3 Rocket 4.1 22:36:22 29° SSE 22:39:32 60° E 22:45:36 10° NNE
ALOS 2 2.6 22:39:48 36° SSE 22:41:33 72° ENE 22:45:57 10° N
FALCON 9 DEB 3.5 22:39:25 10° WNW 22:42:17 43° SW 22:42:17 43° SW
Cosmos 1354 Rocket 4.0 22:41:20 10° NNW 22:46:40 86° WSW 22:49:06 33° SSE
BREEZE-M DEB (TANK) 3.8 22:45:23 10° WNW 22:48:44 87° SSW 23:02:13 10° ESE
ADEOS Rocket 3.5 22:45:43 26° SSE 22:50:16 85° ENE 22:58:05 10° NNW
Cosmos 1825 3.4 22:49:40 22° SW 22:51:29 35° WNW 22:54:58 10° N
Cosmos 2322 Rocket 2.2 22:47:45 10° NNW 22:53:28 87° ENE 22:56:23 31° SSE
Cosmos 1503 Rocket 4.2 22:51:11 10° NNW 22:56:24 60° WSW 22:58:35 33° S
Cosmos 1626 Rocket 4.5 22:54:43 22° SW 22:57:05 41° WNW 23:01:14 10° N
Cosmos 1953 Rocket 4.3 22:58:43 33° SE 23:00:02 42° E 23:04:12 10° NNE
USA 276 3.3 23:01:00 10° W 23:02:49 30° W 23:02:49 30° W
Cosmos 1777 Rocket 4.0 22:59:10 10° NNW 23:04:30 89° ENE 23:06:53 34° SSE
Cosmos 2333 Rocket 2.9 23:03:05 10° NNW 23:08:43 51° NE 23:12:52 18° SE
Cosmos 1825 Rocket 3.4 23:08:18 43° S 23:09:40 80° E 23:14:02 10° NNE
SJ 16-02 1.5 23:06:36 10° NNW 23:11:00 62° WSW 23:12:19 41° SSW
CENTAUR R/B 4.2 23:09:34 14° ESE 23:11:12 15° ESE 23:14:41 10° ENE
Gbstr 26 Del rocket 3.4 23:11:09 41° SSE 23:11:45 44° SE 23:16:37 10° ENE
COSMOS 2487 4.5 23:13:59 14° E 23:13:59 14° E 23:15:20 10° ENE
Cosmos 1340 Rocket 3.0 23:13:04 45° SE 23:13:54 57° E 23:17:49 10° NNE
Cosmos 2082 Rocket 4.1 23:13:17 10° WSW 23:18:04 27° NW 23:22:52 10° NNE
H-2A R/B 3.8 23:15:06 10° N 23:19:15 60° WNW 23:20:55 33° SW
USA 267 3.4 23:13:24 10° NE 23:19:58 79° NNW 23:26:30 10° WSW
Celestis-02/Orion 38 4.5 23:19:53 31° SSE 23:22:24 89° NE 23:27:30 10° NNW
Cosmos 2221 2.8 23:22:25 10° N 23:26:45 62° ENE 23:28:17 37° SE
Cosmos 1606 3.5 23:23:46 10° NNW 23:27:26 41° W 23:28:16 35° SW
Cosmos 2058 3.0 23:26:08 41° SSW 23:27:28 71° W 23:31:40 10° N
Cosmos 2360 Rocket 2.1 23:23:39 10° NNW 23:29:22 78° WSW 23:32:00 33° SSE
Cosmos 1842 Rocket 4.1 23:25:02 10° N 23:29:26 50° ENE 23:31:14 31° SE
Cosmos 1934 Rocket 3.9 23:23:56 10° N 23:30:03 83° W 23:33:06 32° S
Nimbus 7 Rocket 4.5 23:27:48 10° NNE 23:33:44 69° ESE 23:36:36 32° S
Cosmos 2333 4.3 23:28:05 10° NNW 23:33:54 76° ENE 23:37:21 25° SE
Resurs 1-4 Rocket 4.4 23:32:50 10° ENE 23:34:51 12° E 23:36:51 10° ESE
Cosmos 1782 4.1 23:31:57 10° N 23:35:33 32° ENE 23:37:13 23° ESE
Cosmos 1833 4.1 23:39:57 34° SSW 23:42:27 74° ESE 23:48:03 10° NNE
NOSS 8 (A) 4.1 23:42:23 73° SSW 23:42:39 84° SE 23:45:38 10° NE
Cosmos 44 3.1 23:41:21 42° S 23:42:44 64° SE 23:47:10 10° NE
CZ-2D R/B 4.3 23:41:03 10° ENE 23:43:34 13° E 23:46:05 10° ESE
Cosmos 1339 Rocket 4.5 23:50:04 31° SSW 23:53:16 78° W 23:59:26 10° N
Cosmos 2237 Rocket 4.1 23:48:57 10° NNW 23:53:44 27° NE 23:58:29 10° ESE
